Tracking 20942 objects as of 13-Jul-2020
HD Live streaming from Space Station
objects crossing your sky now

SL-14 DEB

Track SL-14 DEB now!
10-day predictions


NORAD ID: 39976
Int'l Code: 1987-068DC
Perigee: 900.5 km
Apogee: 917.7 km
Inclination: 82.6 °
Period: 103.0 minutes
Semi major axis: 7280 km
RCS: 0.0056 m2 (small)
Launch date: August 18, 1987
Source: Commonwealth of Independent States (former USSR) (CIS)
Launch site: PLESETSK MISSILE AND SPACE COMPLEX (PKMTR)

Note: This is SATELLITE DEBRIS
aabbcc
Your satellite tracking list
Your tracking list is empty




NASA's NSSDC Master Catalog

Two Line Element Set (TLE):
1 39976U 87068DC  20194.54063440 +.00000306 +00000-0 +20588-3 0  9990
2 39976 082.5500 124.5776 0011761 094.7864 265.4647 13.97642795829637
Source of the keplerian elements: AFSPC